UAL603 MUHA-KATL

Flight info

Callsign UAL603
Flight time N/A
Altitude 41000
Route MUHA/24 WOLSE1.EMOVI/24 MAXIM Y262 TUNSL DCT FEMID/N0486F380 Q118 SHEEK Q110 DAWWN DCT BEORN HOBTT3
Aircraft B777/H-VGDW/C

Departure

Time N/A
Airport José Martí International Airport (MUHA)

Arrival

Time 2026-05-03 21:01
Airport Hartsfield Jackson Atlanta International Airport (KATL)
Time Latitude Longitude Altitude Speed Heading
2026-05-03 20:15 30.08278 -83.52798 41127 ft 450 kts 313°
2026-05-03 20:15 30.13615 -83.56511 41126 ft 450 kts 313°
2026-05-03 20:16 30.18981 -83.60250 41126 ft 450 kts 313°
2026-05-03 20:16 30.24346 -83.63993 41124 ft 450 kts 313°
2026-05-03 20:17 30.29673 -83.67713 41129 ft 450 kts 314°
2026-05-03 20:17 30.35030 -83.71461 41135 ft 450 kts 314°
2026-05-03 20:18 30.40397 -83.75219 41142 ft 451 kts 314°
2026-05-03 20:18 30.45766 -83.78985 41145 ft 451 kts 314°
2026-05-03 20:19 30.51146 -83.82762 41149 ft 452 kts 314°
2026-05-03 20:19 30.56533 -83.86549 41143 ft 453 kts 314°
2026-05-03 20:20 30.61890 -83.90319 41149 ft 453 kts 314°
2026-05-03 20:20 30.67294 -83.94127 41152 ft 454 kts 314°
2026-05-03 20:21 30.72693 -83.97938 41154 ft 454 kts 314°
2026-05-03 20:21 30.78100 -84.01758 41163 ft 455 kts 314°
2026-05-03 20:22 30.83479 -84.05565 41155 ft 455 kts 314°
2026-05-03 20:22 30.88899 -84.09405 41154 ft 455 kts 315°
2026-05-03 20:23 30.94315 -84.13246 41156 ft 455 kts 315°
2026-05-03 20:23 30.99718 -84.17083 41161 ft 454 kts 315°
2026-05-03 20:24 31.05117 -84.20924 41153 ft 454 kts 315°
2026-05-03 20:24 31.10502 -84.24760 41146 ft 454 kts 315°
2026-05-03 20:25 31.15855 -84.28578 41142 ft 453 kts 315°
2026-05-03 20:25 31.21230 -84.32415 41144 ft 452 kts 315°
2026-05-03 20:26 31.26604 -84.36258 41145 ft 452 kts 315°
2026-05-03 20:26 31.31970 -84.40101 41149 ft 452 kts 315°
2026-05-03 20:27 31.37302 -84.43923 41156 ft 451 kts 315°
2026-05-03 20:27 31.42654 -84.47765 41157 ft 451 kts 315°
2026-05-03 20:28 31.48006 -84.51612 41165 ft 451 kts 315°
2026-05-03 20:28 31.53362 -84.55465 41166 ft 451 kts 315°
2026-05-03 20:29 31.58720 -84.59325 41159 ft 452 kts 315°
2026-05-03 20:29 31.64070 -84.63182 41160 ft 452 kts 315°
2026-05-03 20:30 31.69443 -84.67059 41160 ft 452 kts 315°
2026-05-03 20:30 31.74778 -84.70911 41155 ft 453 kts 315°
2026-05-03 20:31 31.80126 -84.74767 41099 ft 447 kts 315°
2026-05-03 20:31 31.82784 -84.76682 40711 ft 448 kts 315°
2026-05-03 20:31 31.85436 -84.78594 40250 ft 446 kts 315°
2026-05-03 20:31 31.88063 -84.80498 39819 ft 441 kts 315°
2026-05-03 20:32 31.90662 -84.82365 39355 ft 436 kts 316°
2026-05-03 20:32 31.93346 -84.84005 38887 ft 434 kts 322°
2026-05-03 20:32 31.96153 -84.85401 38122 ft 446 kts 324°
2026-05-03 20:32 31.99071 -84.86814 37333 ft 459 kts 325°
2026-05-03 20:33 32.02060 -84.88233 36688 ft 468 kts 326°
2026-05-03 20:33 32.05117 -84.89672 36115 ft 474 kts 326°
2026-05-03 20:33 32.08192 -84.91119 35626 ft 477 kts 327°
2026-05-03 20:33 32.11286 -84.92579 35184 ft 478 kts 327°
2026-05-03 20:34 32.14378 -84.94042 34813 ft 478 kts 327°
2026-05-03 20:34 32.17425 -84.95490 34444 ft 478 kts 327°
2026-05-03 20:34 32.20507 -84.96969 34014 ft 478 kts 327°
2026-05-03 20:34 32.23590 -84.98458 33521 ft 478 kts 327°
2026-05-03 20:35 32.26673 -84.99957 33010 ft 479 kts 327°
2026-05-03 20:35 32.29751 -85.01452 32496 ft 480 kts 328°
2026-05-03 20:35 32.32847 -85.02948 31952 ft 480 kts 328°
2026-05-03 20:35 32.35949 -85.04440 31407 ft 481 kts 328°
2026-05-03 20:36 32.39066 -85.05935 30847 ft 482 kts 329°
2026-05-03 20:36 32.42172 -85.07419 30331 ft 481 kts 329°
2026-05-03 20:36 32.45265 -85.08894 29956 ft 477 kts 329°
2026-05-03 20:36 32.48327 -85.10367 29568 ft 473 kts 329°
2026-05-03 20:37 32.51316 -85.11817 29178 ft 469 kts 329°
2026-05-03 20:37 32.54325 -85.13287 28748 ft 467 kts 330°
2026-05-03 20:37 32.57321 -85.14752 28331 ft 465 kts 330°
2026-05-03 20:37 32.60308 -85.16206 27935 ft 462 kts 330°
2026-05-03 20:38 32.63273 -85.17641 27391 ft 459 kts 330°
2026-05-03 20:38 32.66216 -85.19058 26732 ft 454 kts 331°
2026-05-03 20:38 32.69131 -85.20460 26092 ft 449 kts 332°
2026-05-03 20:38 32.72011 -85.21858 25468 ft 444 kts 332°
2026-05-03 20:39 32.74852 -85.23224 24824 ft 435 kts 334°
2026-05-03 20:39 32.77765 -85.24176 24214 ft 436 kts 344°
2026-05-03 20:39 32.80770 -85.24607 23632 ft 436 kts 352°
2026-05-03 20:39 32.83800 -85.24558 23000 ft 433 kts
2026-05-03 20:40 32.86780 -85.24188 22450 ft 428 kts
2026-05-03 20:40 32.89689 -85.23791 21903 ft 424 kts
2026-05-03 20:40 32.92599 -85.23406 21364 ft 419 kts
2026-05-03 20:40 32.95480 -85.23054 20837 ft 414 kts
2026-05-03 20:41 32.98335 -85.22719 20319 ft 408 kts
2026-05-03 20:41 33.01071 -85.21985 19774 ft 404 kts 17°
2026-05-03 20:41 33.03563 -85.20418 19318 ft 407 kts 31°
2026-05-03 20:41 33.05689 -85.18179 18889 ft 412 kts 44°
2026-05-03 20:42 33.07629 -85.15636 18419 ft 423 kts 45°
2026-05-03 20:42 33.09622 -85.12991 17859 ft 426 kts 45°
2026-05-03 20:42 33.11594 -85.10374 17321 ft 421 kts 45°
2026-05-03 20:42 33.13537 -85.07810 16825 ft 415 kts 45°
2026-05-03 20:43 33.15480 -85.05274 16339 ft 408 kts 44°
2026-05-03 20:43 33.17367 -85.02831 15837 ft 403 kts 44°
2026-05-03 20:43 33.19255 -85.00389 15300 ft 399 kts 44°
2026-05-03 20:43 33.21128 -84.97969 14813 ft 394 kts 44°
2026-05-03 20:44 33.22978 -84.95568 14350 ft 390 kts 44°
2026-05-03 20:44 33.24804 -84.93186 13873 ft 386 kts 44°
2026-05-03 20:44 33.26606 -84.90820 13348 ft 382 kts 44°
2026-05-03 20:44 33.28384 -84.88486 12873 ft 377 kts 44°
2026-05-03 20:45 33.30143 -84.86191 12423 ft 372 kts 44°
2026-05-03 20:45 33.31884 -84.83924 11983 ft 368 kts 44°
2026-05-03 20:45 33.33645 -84.81761 11839 ft 361 kts 41°
2026-05-03 20:45 33.35488 -84.79653 11701 ft 373 kts 40°
2026-05-03 20:46 33.37385 -84.77509 11553 ft 375 kts 40°
2026-05-03 20:46 33.39273 -84.75350 11393 ft 377 kts 40°
2026-05-03 20:46 33.41165 -84.73161 11235 ft 377 kts 41°
2026-05-03 20:46 33.43044 -84.70968 11075 ft 377 kts 41°
2026-05-03 20:47 33.44895 -84.68800 10962 ft 374 kts 41°
2026-05-03 20:47 33.46721 -84.66656 10785 ft 362 kts 41°
2026-05-03 20:47 33.48487 -84.64580 10632 ft 349 kts 41°
2026-05-03 20:47 33.50196 -84.62593 10496 ft 336 kts 40°
2026-05-03 20:48 33.51852 -84.60677 10360 ft 323 kts 41°
2026-05-03 20:48 33.53159 -84.58598 10200 ft 307 kts 62°
2026-05-03 20:48 33.53721 -84.56182 10088 ft 296 kts 82°
2026-05-03 20:48 33.53775 -84.53738 10018 ft 291 kts 86°
2026-05-03 20:49 33.53762 -84.51323 9872 ft 289 kts 87°
2026-05-03 20:49 33.53747 -84.48916 9758 ft 286 kts 86°
2026-05-03 20:49 33.53742 -84.46536 9642 ft 286 kts 86°
2026-05-03 20:49 33.53742 -84.44140 9516 ft 289 kts 86°
2026-05-03 20:50 33.53740 -84.41731 9398 ft 288 kts 86°
2026-05-03 20:50 33.53736 -84.39334 9293 ft 288 kts 86°
2026-05-03 20:50 33.53737 -84.36937 9138 ft 286 kts 86°
2026-05-03 20:50 33.53738 -84.34569 9123 ft 283 kts 86°
2026-05-03 20:51 33.53744 -84.32192 8987 ft 289 kts 86°
2026-05-03 20:51 33.53750 -84.30585 8674 ft 293 kts 86°
2026-05-03 20:51 33.53756 -84.28132 8100 ft 297 kts 86°
2026-05-03 20:51 33.53756 -84.25645 7498 ft 301 kts 87°
2026-05-03 20:52 33.53745 -84.22262 6768 ft 310 kts 87°
2026-05-03 20:52 33.53743 -84.20502 6371 ft 314 kts 87°
2026-05-03 20:52 33.53860 -84.17876 5769 ft 318 kts 76°
2026-05-03 20:52 33.54605 -84.15403 5129 ft 312 kts 66°
2026-05-03 20:53 33.55038 -84.12887 4508 ft 310 kts 88°
2026-05-03 20:53 33.54665 -84.10359 3878 ft 312 kts 104°
2026-05-03 20:53 33.54341 -84.07785 3348 ft 312 kts 83°
2026-05-03 20:53 33.54969 -84.05400 3145 ft 300 kts 56°
2026-05-03 20:54 33.56395 -84.03651 2975 ft 285 kts 27°
2026-05-03 20:54 33.59982 -84.02976 2906 ft 256 kts 354°
2026-05-03 20:54 33.61606 -84.03510 2926 ft 235 kts 322°
2026-05-03 20:55 33.62610 -84.04884 2970 ft 216 kts 288°
2026-05-03 20:55 33.62920 -84.06701 2991 ft 232 kts 272°
2026-05-03 20:55 33.63005 -84.08658 2968 ft 229 kts 270°
2026-05-03 20:55 33.63069 -84.10577 2946 ft 236 kts 271°
2026-05-03 20:56 33.63136 -84.12524 2971 ft 233 kts 270°
2026-05-03 20:56 33.63159 -84.14512 2982 ft 242 kts 269°
2026-05-03 20:56 33.63160 -84.16463 2958 ft 223 kts 268°
2026-05-03 20:56 33.63161 -84.18213 2971 ft 199 kts 268°
2026-05-03 20:57 33.63154 -84.19799 3014 ft 187 kts 265°
2026-05-03 20:57 33.63144 -84.21352 3005 ft 185 kts 268°
2026-05-03 20:57 33.63155 -84.22937 2993 ft 193 kts 268°
2026-05-03 20:57 33.63165 -84.24535 2993 ft 186 kts 268°
2026-05-03 20:58 33.63168 -84.26053 3013 ft 183 kts 268°
2026-05-03 20:58 33.63139 -84.27548 3018 ft 174 kts 265°
2026-05-03 20:58 33.63155 -84.28961 3041 ft 165 kts 269°
2026-05-03 20:58 33.63181 -84.30348 3009 ft 176 kts 268°
2026-05-03 20:59 33.63175 -84.31871 2713 ft 177 kts 267°
2026-05-03 20:59 33.63203 -84.33286 2457 ft 158 kts 266°
2026-05-03 20:59 33.63176 -84.34496 2264 ft 139 kts 265°
2026-05-03 20:59 33.63169 -84.35739 2108 ft 155 kts 267°
2026-05-03 21:00 33.63176 -84.37055 1865 ft 154 kts 266°
2026-05-03 21:00 33.63175 -84.37910 1690 ft 147 kts 265°
2026-05-03 21:00 33.63166 -84.39549 1498 ft 153 kts 269°
2026-05-03 21:00 33.63185 -84.40845 1270 ft 159 kts 272°
2026-05-03 21:01 33.63180 -84.42135 1009 ft 150 kts 271°
2026-05-03 21:01 33.63185 -84.43253 1020 ft 109 kts 268°
2026-05-03 21:01 33.63178 -84.43780 1024 ft 71 kts 270°
2026-05-03 21:01 33.63225 -84.44146 1026 ft 18 kts 289°
2026-05-03 21:02 33.63240 -84.44194 1026 ft 13 kts 292°
2026-05-03 21:02 33.63314 -84.44262 1027 ft 2 kts
2026-05-03 21:02 33.63361 -84.44186 1025 ft 17 kts 81°
2026-05-03 21:02 33.63360 -84.44017 1021 ft 30 kts 91°
2026-05-03 21:03 33.63358 -84.43885 1020 ft 8 kts 91°
2026-05-03 21:03 33.63359 -84.43817 1024 ft 13 kts 88°
2026-05-03 21:03 33.63363 -84.43676 1021 ft 10 kts 89°
2026-05-03 21:03 33.63363 -84.43604 1021 ft 0 kts 90°
2026-05-03 21:04 33.63363 -84.43592 1021 ft 7 kts 90°
2026-05-03 21:04 33.63363 -84.43517 1021 ft 13 kts 90°
2026-05-03 21:04 33.63362 -84.43439 1020 ft 6 kts 91°
2026-05-03 21:04 33.63361 -84.43385 1020 ft 2 kts 91°
2026-05-03 21:05 33.63377 -84.43339 1019 ft 12 kts 47°
2026-05-03 21:05 33.63477 -84.43293 1016 ft 13 kts
2026-05-03 21:05 33.63553 -84.43301 1014 ft 15 kts 347°
2026-05-03 21:05 33.63615 -84.43304 1013 ft 7 kts 25°
2026-05-03 21:06 33.63659 -84.43231 1014 ft 11 kts 72°
2026-05-03 21:06 33.63723 -84.43123 1013 ft 14 kts 27°
2026-05-03 21:06 33.63735 -84.43121 1012 ft 2 kts
2026-05-03 21:06 33.63760 -84.43121 1012 ft 5 kts 360°
2026-05-03 21:07 33.63798 -84.43124 1012 ft 6 kts 356°
2026-05-03 21:07 33.63844 -84.43128 1012 ft 7 kts 356°
2026-05-03 21:07 33.63892 -84.43130 1014 ft 7 kts 359°
2026-05-03 21:07 33.63939 -84.43130 1016 ft 7 kts
2026-05-03 21:08 33.63982 -84.43108 1017 ft 7 kts 46°
2026-05-03 21:08 33.63986 -84.43067 1017 ft 0 kts 106°
2026-05-03 21:08 33.63984 -84.43057 1017 ft 2 kts 105°
2026-05-03 21:08 33.63978 -84.43031 1017 ft 4 kts 105°
2026-05-03 21:09 33.63972 -84.43006 1016 ft 1 kts 107°
2026-05-03 21:09 33.63971 -84.43002 1016 ft 0 kts 107°
2026-05-03 21:13 33.64012 -84.42978 1017 ft 0 kts 105°
2026-05-03 21:15 33.63965 -84.42981 1016 ft 0 kts 120°
2026-05-03 21:25 33.64328 -84.42893 1027 ft 0 kts 270°
2026-05-03 21:27 33.63965 -84.42981 1016 ft 0 kts 120°